Regional Weather Roundup
Issued by NWS

Home | Current Version | Previous Version | Text Only | Print | Product List | Glossary On
Versions: 1 2 3 4 5 6 7 8 9 10 11 12 13 14 15 16 17 18 19 20 21 22 23 24 25 26 27 28 29 30 31 32 33 34 35 36 37 38 39 40 41 42 43 44 45 46 47 48 49 50
000
ASUS44 KMEG 211010
RWRTN
TENNESSEE HOURLY STATE WEATHER ROUNDUP
NATIONAL WEATHER SERVICE MEMPHIS TN
500 AM CDT THU AUG 21 2014

TNZ002-004-019-021-049-052-054-088>092-211100-
WEST TENNESSEE

CITY           SKY/WX    TMP DP  RH WIND       PRES   REMARKS
MEMPHIS INTL   CLEAR     78  71  79 S7        30.07R
NWS MEMPHIS      N/A     76 N/A N/A MISG        N/A
JACKSON        PTCLDY    73  70  90 S7        30.06R
DYERSBURG      MOCLDY    73  64  73 CALM      30.06R
UNION CITY     CLEAR     73  72  94 S3        30.04R
PARIS          CLEAR     72  70  94 CALM      30.07R
HUNTINGDON     PTCLDY    72  70  93 CALM      30.06R
LEXINGTON      CLEAR     70  68  94 SE3       30.07R
SAVANNAH       CLEAR     72  72 100 CALM      30.09R
$$

TNZ008-025-027-028-033-062-065-066-211100-
NORTH MIDDLE TENNESSEE

CITY           SKY/WX    TMP DP  RH WIND       PRES   REMARKS
NASHVILLE      MOCLDY    70  69  97 CALM      30.09R
PORTLAND       CLOUDY    68  66  94 CALM      30.08R
CLARKSVILLE    MOCLDY    69  68  96 CALM      30.06R
SMYRNA         CLEAR     70  69  96 CALM      30.10R
MURFREESBORO   CLEAR     69  68  97 CALM      30.09R
COOKEVILLE     CLEAR     64  64 100 CALM      30.10S
GALLATIN       CLEAR     67  67 100 CALM      30.10R
CROSSVILLE     PTCLDY    67  62  84 SW3       30.15S
$$

TNZ061-075-076-078-094-096-097-211100-
SOUTH MIDDLE TENNESSEE

CITY           SKY/WX    TMP DP  RH WIND       PRES   REMARKS
LEWISBURG      CLEAR     68  66  93 CALM      30.09R
FAYETTEVILLE   CLEAR     70  66  88 S6        30.11S
TULLAHOMA      CLEAR     66  64  94 CALM      30.13R
WINCHESTER     CLEAR     68  66  94 CALM      30.12R
MCMINNVILLE    CLEAR     66  66 100 CALM      30.12R
COLUMBIA       CLEAR     70  70 100 CALM      30.08R
SHELBYVILLE    CLEAR     70  68  94 SE3       30.11R
$$

TNZ017-018-042-046-047-211100-
NORTHEAST TENNESSEE

CITY           SKY/WX    TMP DP  RH WIND       PRES   REMARKS
TRI CITIES     MOCLDY    66  64  93 CALM      30.16R FOG
ELIZABETHTON   MOSUNNY   61  61 100 CALM      30.17R
$$

TNZ012-013-036-069-073-074-211100-
CENTRAL EAST TENNESSEE

CITY           SKY/WX    TMP DP  RH WIND       PRES   REMARKS
KNOXVILLE      PTCLDY    65  65 100 S3        30.11R FOG
OAK RIDGE      CLOUDY    66  65  96 CALM      30.12S FOG
GATLINBURG     CLOUDY    64  64 100 CALM      30.13R VSB 1/2
MORRISTOWN     CLOUDY    66  64  94 CALM      30.15R VSB 1/4
$$

TNZ083-085-099-211100-
SOUTHEAST TENNESSEE

CITY           SKY/WX    TMP DP  RH WIND       PRES   REMARKS
CHATTANOOGA    PTCLDY    70  67  90 CALM      30.11R
$$

SKY/WX REPORTED AS FAIR MEANS FEW OR NO CLOUDS BELOW
12 THOUSAND FEET.



USA.gov is the U.S. government's official web portal to all federal, state and local government web resources and services.